Noorvik, AK

8:12 PM AKDT on September 30, 2016 (GMT -0800)
Baker Memorial

Weather History for PAIK - April, 2013

Change the Weather History Date:

Monday, April 29, 2013

  Actual Average (PASK) Record (PASK)
Temperature  
Mean Temperature 24 °F -  
Max Temperature 19 °F 28 °F 44 °F (2016)
Min Temperature 19 °F 14 °F 1 °F (2006)
Degree Days  
Heating Degree Days 40    
Moisture  
Dew Point 20 °F    
Average Humidity 82    
Maximum Humidity 96    
Minimum Humidity 69    
Precipitation  
Precipitation 0.00 in - - ()
Sea Level Pressure  
Sea Level Pressure 30.26 in    
Wind  
Wind Speed 7 mph (SW)    
Max Wind Speed 14 mph    
Max Gust Speed -    
Visibility 8 miles    
Events Snow    
Averages and records for this station are not official NWS values.
T = Trace of Precipitation, MM = Missing Value Source: NWS Daily Summary

Daily Weather History Graph

Daily Weather History Graph

Search for Another Location

Airport or City:

Trip Planner

Search our weather history database for the weather conditions in past years. The results will help you decide how hot, cold, wet, or windy it might be!

Date:

Astronomy

Apr. 29, 2013 Rise Set
Actual Time 5:56 AM AKDT 11:24 PM AKDT
Civil Twilight 4:27 AM AKDT 12:56 AM AKDT
Nautical Twilight Sun does not set Sun does not set
Astronomical Twilight Sun does not set Sun does not set
Moon 4:06 AM AKDT (4/29) 8:29 AM AKDT (4/29)
Length of Visible Light 20h 28m
Length of Day
17h 28m
Waning Gibbous, 79% of the Moon is Illuminated
Apr 29
Waning Gibbous
May 2
Last Quarter
May 9
New
May 17
First Quarter
May 24
Full

Hourly Weather History & Observations

Time (AKDT) Temp. Windchill Dew Point Humidity Pressure Visibility Wind Dir Wind Speed Gust Speed Precip Events Conditions
12:01 AM 19.9 °F 6.7 °F 18.0 °F 92% 30.38 in 10.0 mi West 13.8 mph - N/A   Overcast
1:01 AM 19.9 °F 8.6 °F 18.0 °F 92% 30.38 in 10.0 mi WSW 10.4 mph - N/A   Overcast
2:01 AM 19.9 °F 7.9 °F 18.0 °F 92% 30.37 in 10.0 mi West 11.5 mph - N/A   Overcast
3:01 AM 19.9 °F 8.6 °F 18.0 °F 92% 30.37 in 10.0 mi West 10.4 mph - N/A   Overcast
3:36 AM 19.4 °F 7.9 °F 17.6 °F 93% 30.23 in 10.0 mi West 10.4 mph - N/A   Overcast
4:01 AM 19.9 °F 8.6 °F 18.0 °F 92% 30.37 in 10.0 mi West 10.4 mph - N/A   Overcast
5:01 AM 19.9 °F 13.4 °F 18.0 °F 92% 30.36 in 10.0 mi WSW 4.6 mph - N/A   Overcast
6:01 AM 19.4 °F 11.5 °F 17.6 °F 93% 30.22 in 10.0 mi West 5.8 mph - N/A   Overcast
7:01 AM 19.9 °F - 19.0 °F 96% 30.34 in 10.0 mi Calm Calm - N/A   Overcast
8:01 AM 21.0 °F 16.2 °F 19.0 °F 92% 30.33 in 9.0 mi SSW 3.5 mph - 0.00 in Snow Light Snow
8:50 AM 21.2 °F 14.9 °F 19.4 °F 93% 30.20 in 9.0 mi SSW 4.6 mph - 0.00 in Snow Light Snow
9:01 AM 21.2 °F 14.9 °F 19.4 °F 93% 30.20 in 9.0 mi SSW 4.6 mph - 0.00 in Snow Light Snow
9:17 AM 21.2 °F 14.9 °F 19.4 °F 93% 30.20 in 9.0 mi SSW 4.6 mph - 0.00 in Snow Light Snow
9:26 AM 21.2 °F 16.4 °F 19.4 °F 93% 30.20 in 9.0 mi SSW 3.5 mph - 0.00 in Snow Light Snow
10:01 AM 23.0 °F 18.4 °F 19.9 °F 88% 30.33 in 4.0 mi SSW 3.5 mph - 0.00 in Snow Light Snow
10:14 AM 24.8 °F 19.1 °F 19.4 °F 80% 30.19 in 2.0 mi SSW 4.6 mph - 0.00 in Snow Light Snow
10:25 AM 24.8 °F 19.1 °F 19.4 °F 80% 30.20 in 5.0 mi SW 4.6 mph - 0.00 in Snow Light Snow
10:56 AM 26.6 °F 21.2 °F 19.4 °F 74% 30.19 in 5.0 mi SSW 4.6 mph - 0.00 in Snow Light Snow
11:01 AM 27.0 °F 21.6 °F 21.0 °F 78% 30.32 in 6.0 mi South 4.6 mph - 0.00 in Snow Light Snow
12:01 PM 27.0 °F 21.6 °F 21.0 °F 78% 30.32 in 6.0 mi South 4.6 mph - 0.00 in Snow Light Snow
12:39 PM 28.4 °F 22.2 °F 21.2 °F 74% 30.19 in 7.0 mi Variable 5.8 mph - 0.00 in Snow Light Snow
1:01 PM 30.0 °F 24.1 °F 21.0 °F 69% 30.32 in 9.0 mi South 5.8 mph - 0.00 in Snow Light Snow
1:17 PM 30.2 °F 25.4 °F 21.2 °F 69% 30.19 in 10.0 mi SW 4.6 mph - 0.00 in   Overcast
2:01 PM 28.9 °F 21.1 °F 19.9 °F 69% 30.32 in 10.0 mi WSW 8.1 mph - 0.00 in   Overcast
2:22 PM 28.4 °F 20.4 °F 21.2 °F 74% 30.19 in 4.0 mi WSW 8.1 mph - 0.00 in Snow Light Snow
3:01 PM 30.0 °F 23.2 °F 21.0 °F 69% 30.32 in 6.0 mi SW 6.9 mph - 0.00 in Snow Light Snow
3:08 PM 30.2 °F 23.4 °F 21.2 °F 69% 30.19 in 10.0 mi WSW 6.9 mph - 0.00 in   Overcast
3:15 PM 28.4 °F 21.2 °F 21.2 °F 74% 30.19 in 10.0 mi SW 6.9 mph - 0.00 in   Overcast
4:01 PM 30.2 °F 25.4 °F 21.2 °F 69% 30.18 in 10.0 mi WSW 4.6 mph - 0.00 in   Overcast
4:11 PM 30.0 °F 23.2 °F 21.9 °F 72% 30.32 in 10.0 mi SW 6.9 mph - 0.00 in   Overcast
5:01 PM 30.0 °F 23.2 °F 21.9 °F 72% 30.31 in 6.0 mi SW 6.9 mph - 0.00 in Snow Light Snow
5:31 PM 28.4 °F 21.2 °F 21.2 °F 74% 30.18 in 7.0 mi SW 6.9 mph - 0.00 in   Overcast
6:01 PM 30.0 °F 24.1 °F 23.0 °F 75% 30.31 in 4.0 mi SSW 5.8 mph - 0.00 in Snow Light Snow
6:49 PM 30.2 °F 24.3 °F 23.0 °F 75% 30.17 in 5.0 mi WSW 5.8 mph - 0.00 in   Haze
7:01 PM 30.0 °F 23.2 °F 24.1 °F 79% 30.30 in 7.0 mi WSW 6.9 mph - 0.00 in   Overcast
7:13 PM 30.2 °F 23.4 °F 23.0 °F 75% 30.17 in 7.0 mi WSW 6.9 mph - 0.00 in Snow Light Snow
8:01 PM 28.9 °F 23.9 °F 23.0 °F 78% 30.30 in 8.0 mi WSW 4.6 mph - 0.00 in Snow Light Snow
9:01 PM 28.0 °F 24.2 °F 24.1 °F 85% 30.30 in 6.0 mi SW 3.5 mph - 0.00 in Snow Light Snow
10:01 PM 26.6 °F 22.6 °F 23.0 °F 86% 30.17 in 9.0 mi SW 3.5 mph - 0.00 in Snow Light Snow
10:42 PM 25.0 °F 19.3 °F 21.9 °F 88% 30.30 in 9.0 mi SSW 4.6 mph - 0.00 in Snow Light Snow
11:01 PM 24.1 °F - 21.0 °F 88% 30.31 in 9.0 mi Calm Calm - 0.00 in   Mostly Cloudy
11:47 PM 23.0 °F - 19.4 °F 86% 30.18 in 8.0 mi Calm Calm - N/A   Mostly Cloudy